Regional Weather Roundup
Issued by NWS

Home | Current Version | Previous Version | Text Only | Print | Product List | Glossary On
Versions: 1 2 3 4 5 6 7 8 9 10 11 12 13 14 15 16 17 18 19 20 21 22 23 24 25 26 27 28 29 30 31 32 33 34 35 36 37 38 39 40 41 42 43 44 45 46 47 48 49 50
000
ASUS43 KBIS 280310
RWRND

NORTH DAKOTA REGIONAL WEATHER ROUNDUP
NATIONAL WEATHER SERVICE BISMARCK ND
900 PM CST SAT DEC 27 2014

NOTE: "FAIR" INDICATES FEW OR NO CLOUDS BELOW 12,000 FEET WITH NO
SIGNIFICANT WEATHER AND/OR OBSTRUCTIONS TO VISIBILITY.


NDZ001>003-009>011-017-280400-
NORTHWEST NORTH DAKOTA

CITY           SKY/WX    TMP DP  RH WIND       PRES   REMARKS
WILLISTON      LGT SNOW  19  16  88 NE6       30.01S FOG     WCI  11
MINOT          CLOUDY    14   9  80 N12       30.03R WCI   0
MINOT AFB      MIX PCPN  12  10  92 NE9       30.04S WCI   0
$$

NDZ018>021-031>035-040>046-280400-
SOUTHWEST NORTH DAKOTA

CITY           SKY/WX    TMP DP  RH WIND       PRES   REMARKS
BISMARCK       MOCLDY    16  13  88 SW3       30.04R
DICKINSON      CLOUDY    23  16  74 W8        29.95F WCI  14
GARRISON         N/A     16  13  88 CALM      30.01S
HETTINGER ARPT CLOUDY    21  15  78 W6        30.00S WCI  13
$$

NDZ004>008-012>016-024-026-027-054-280400-
NORTHEAST NORTH DAKOTA

CITY           SKY/WX    TMP DP  RH WIND       PRES   REMARKS
GRAND FORKS    FLURRIES  12   9  85 N16       30.07R WCI  -4
GRND FRKS AFB  FLURRIES  12  12 100 N15       30.07R WCI  -4
DEVILS LAKE    CLOUDY    16  10  79 NE17      30.02R WCI   0
$$

NDZ022-023-025-028>030-036>039-047>053-280400-
SOUTHEAST NORTH DAKOTA

CITY           SKY/WX    TMP DP  RH WIND       PRES   REMARKS
FARGO          CLOUDY    23  18  81 SW5       30.03F WCI  17
JAMESTOWN      MOCLDY    17  13  84 NW8       30.00R WCI   7
$$




USA.gov is the U.S. government's official web portal to all federal, state and local government web resources and services.